ONEWEB-0165 (48233 NORAD) Tracking and Keplerian Element Data

This shows tracking and keplerian element data for the satellite.

Feedback or suggestion? Click here.




ElementValue
Catalog48233
NameONEWEB-0165
Epoch Orbit181
Epoch Day136.91668981
Epoch Year2021
RAAN305.6833
Inclination87.4209
Eccentricity0.000958
Argument of Perigee183.6534
Mean Anonmoly327.536
Mean Motion15.35168473
Decay Rate-0.0132985
L11 48233U 21031Z 21136.91668981 -.01329850 00000-0 -42647-1 0 9992
L22 48233 87.4209 305.6833 0009580 183.6534 327.5360 15.35168473 1811

Live tracking and technical data element details for ONEWEB-0165 (NORAD 48233). ONEWEB-0165 can be tracked NOW for your location showing map with azimuth and elevation plus other details from your city location.

Track the satellite on the map from your city or location and see movement details for azimuth, elevation, latitude, longitude, range, height, and movement on the map or in text.







IsCatalogInMostPopularTable: catalog: 48233, numindb: 4
Update: records affected: 1



GetName: 48233 ONEWEB-0165

Hit Count: updated at: Mon, 17 May 2021 16:16:19 GMT